Location: Geçitköy
(36.7327°N, 29.8010°E)
Time: 05:00:07
(UTC+00:00)

Cosmos 2341 Rocket - Pass Details

Date: 12 January 2026
Orbit: 967 x 1004 km, 82.9° (Epoch: 14 February)

Event Time Altitude Azimuth Distance (km) Brightness Sun altitude
Rises 16:12:45 0° 352° (N) 3,717 6.9 -13.4°
Reaches altitude 10° 16:15:17 10° 352° (N) 2,759 6.3 -13.9°
Maximum altitude 16:21:38 86° 266° (W) 991 4.1 -15.1°
Drops below altitude 10° 16:27:52 10° 177° (S) 2,717 6.5 -16.3°
Sets 16:30:21 0° 177° (S) 3,656 7.2 -16.8°
